OPS 6630 DEB

基本信息
目录编号:
9323
目录名称:
OPS 6630 DEB
国际标识:
1973-088F
轨道中心:
EARTH
物体状态:
在轨
发射日期:
1973-11-10 UTC
轨道信息
数据来源: 国际轨道数据
星历时间: 2026-09-12T21:52:25+0800
半长轴: 7804.707km
偏心率: 0.0024678
轨道倾角: 97.035°
近地点辐角: 57.714°
升交点赤经: 129.716°
平近点角: 16.528°
近地点: 1407.309km
远地点: 1445.831km
周期: 114.365分钟
每日圈数: 12.591223
详细信息
发射场:
AFWTR
轨道高度:
LEO
数据来源:
AOE Integration Group
参考系:
TEME
时间系统:
UTC
历元类型:
SGP4
2D轨道图
3D轨道图
轨道高度分析图
轨道倾角分析图
轨道综合分析图
查看轨道综合分析图